Tracking 19576 objects as of 17-Feb-2019
HD Live streaming from Space Station
objects crossing your sky now

QBITO

Track QBITO now!
10-day predictions
QBITO is classified as:


NORAD ID: 42728
Int'l Code: 1998-067MH
Perigee: 156.8 km
Apogee: 162.2 km
Inclination: 51.6 °
Period: 87.5 minutes
Semi major axis: 6530 km
RCS: Unknown
Launch date: November 20, 1998
Source: Spain (SPN)
Launch site: TYURATAM MISSILE AND SPACE COMPLEX (TTMTR)

Uplink (MHz):
Downlink (MHz): 436.810
Beacon (MHz):
Mode: 9600bps GFSK
Call sign:
Status: Inactive

aabbcc
Your satellite tracking list
Your tracking list is empty




NASA's NSSDC Master Catalog

Two Line Element Set (TLE):
1 42728U 98067MH  19047.60446742  .14892182  12584-4  44484-3 0  9993
2 42728  51.6170 162.9558 0004113 309.3568  50.8266 16.45061398 99080
Source of the keplerian elements: AMSAT